User: anonymous
Location: Rehoboth Beach
(38.7438°N, 75.1341°W)
Time: 01:58:00
(UTC-04:00)
Language:

Cosmos 1452 Rocket - Orbit

View from above orbital plane
View from above orbital plane
View from above satellite
View from above satellite

Ground track
Ground track

The orbit data is extracted from the following two-line orbital elements,

1 13992U 83031B   14272.80860424  .00000346  00000-0  12865-3 0  5261
2 13992 074.0559 025.1357 0006000 258.9459 260.0449 14.35778536646502
Epoch (UTC): 29 September 2014 19:24:23
Eccentricity: 0.0006000
inclination: 74.0559°
perigee height: 768 km
apogee height: 777 km
right ascension of ascending node: 25.1357°
argument of perigee: 258.9459°
revolutions per day: 14.35778536
mean anomaly at epoch: 260.0449°
orbit number at epoch: 64650

The dashed part of the orbit path shows where the satellite is in the earth's shadow,  

DLR